Regional Weather Roundup
Issued by NWS Jackson, KY

Home | Current Version | Previous Version | Text Only | Print | Product List | Glossary Off
Versions: 1 2 3 4 5 6 7 8 9 10 11 12 13 14 15 16 17 18 19 20 21 22 23 24 25 26 27 28 29 30 31 32 33 34 35 36 37 38 39 40 41 42 43 44 45 46 47 48 49

000
ASUS43 KJKL 031810
RWRJKL

EAST KENTUCKY HOURLY WEATHER ROUNDUP
NATIONAL WEATHER SERVICE JACKSON KY
200 PM EDT TUE MAY 03 2016

NOTE: "FAIR" INDICATES FEW OR NO CLOUDS BELOW 12,000 FEET WITH
NO SIGNIFICANT WEATHER AND/OR OBSTRUCTIONS TO VISIBILITY.

* THESE REPORTS ARE NOT UNDER NWS QUALITY CONTROL AND MAY NOT
  REPORT WEATHER SUCH AS PRECIPITATION AND FOG.

KYZ079-080-083-085-087-088-110-112-115-119-120-031900
...EASTERN KENTUCKY...

CITY           SKY/WX    TMP DP  RH WIND       PRES   REMARKS
JACKSON        PTSUNNY   62  50  64 VRB3      29.89F
6HR MIN TEMP:  54; 6HR MAX TEMP:  62; 6HR PCP: TRACE;

LONDON         CLOUDY    62  47  57 W12       29.92F
6HR MIN TEMP:  55; 6HR MAX TEMP:  63;

SOMERSET*      CLOUDY    61  46  59 W9        29.94F
MONTICELLO*    CLOUDY    63  49  60 NW12      29.95F
6HR MIN TEMP:  56; 6HR MAX TEMP:  63;

WILLIAMSBURG*  MOCLDY    59  50  72 N7        29.92F
MIDDLESBORO*   CLOUDY    65  51  62 NW10      29.91F
6HR MIN TEMP:  57; 6HR MAX TEMP:  67;

HARLAN APT*    MOCLDY    63  48  59 W12       29.90F
PIKE CO APT*   CLOUDY    60  55  84 W5        29.88F
BIG SANDY APT* CLOUDY    61  54  78 NW3       29.88F
6HR MIN TEMP:  57; 6HR MAX TEMP:  62;

MOREHEAD APT*  MOCLDY    61  50  67 W9        29.91S
$$

KYZ035-036-041-042-044-050-067-078-099-031900
...CENTRAL KENTUCKY...

CITY           SKY/WX    TMP DP  RH WIND       PRES   REMARKS
MT STERLING*   CLOUDY    61  50  67 NW8       29.92S
FLEMING/MASON* CLOUDY    58  51  77 W6        29.90S
DANVILLE*      CLOUDY    59  46  63 W12       29.94F
RICHMOND*      CLOUDY    59  48  67 W12       29.92S
LEXINGTON      CLOUDY    58  47  66 W9        29.92S
6HR MIN TEMP:  54; 6HR MAX TEMP:  60;

FRANKFORT      CLOUDY    63  47  55 W7        29.90F
6HR MIN TEMP:  54; 6HR MAX TEMP:  63;

LOUISVILLE     PTSUNNY   66  44  45 NW8       29.91F
6HR MIN TEMP:  55; 6HR MAX TEMP:  66;

LEBANON*       CLOUDY    59  48  67 SW6       29.94F
BOWLING GREEN  CLOUDY    62  49  62 W7        29.96F
6HR MIN TEMP:  54; 6HR MAX TEMP:  63;

$$

KYZ091>093-OHZ055-061-077-WVZ005-015-034-035-042-031900
...SOUTHERN OHIO/WEST VIRGINIA...

CITY           SKY/WX    TMP DP  RH WIND       PRES   REMARKS
COVINGTON      CLOUDY    58  52  80 N10       29.90F
COLUMBUS       CLOUDY    59  44  57 NW5       29.87F
DAYTON         CLOUDY    56  45  66 NE5       29.91F
WILMINGTON     CLOUDY    55  48  77 NW7       29.89F
HUNTINGTON     LGT RAIN  56  54  93 NW5       29.87F FOG
CHARLESTON     LGT RAIN  58  54  86 NW5       29.85F
PINEVILLE*     CLOUDY    61  52  73 MISG      29.91S
BECKLEY        PTSUNNY   63  53  70 NW13G21   29.85F
$$

VAZ002-007-008-TNZ017-027-036-066-071-031900
...SOUTHWEST VIRGINIA/EAST TENNESSEE...

CITY           SKY/WX    TMP DP  RH WIND       PRES   REMARKS
WISE*          CLOUDY    59  52  77 NW5       29.91F
BRISTOL        CLOUDY    68  57  68 W8        29.87S
MORRISTOWN*    CLOUDY    66  54  63 NW10      29.88F
SEVIERVILLE*   CLOUDY    64  55  72 NW6       29.88F
KNOXVILLE      PTSUNNY   68  53  58 W12       29.88F
OAK RIDGE      MOSUNNY   71  49  45 VRB6      29.90F
CROSSVILLE     PTSUNNY   64  50  60 W10G18    29.94F
NASHVILLE      PTSUNNY   63  48  58 N10       29.97F
$$

...KEY TO REMARKS...
VSB - VISIBILITY IN MILES
WCI - WIND CHILL INDEX
HX  - HEAT INDEX

$$



USA.gov is the U.S. government's official web portal to all federal, state and local government web resources and services.